DLH4391 EDDF-EDLW

Flight info

Callsign DLH4391
Flight time 0h 28m
Altitude 22000
Route MARUN6E/07C MARUN Y152 ARPEG Z850 ADEMI ADEMI2A
Aircraft A321/M-SDE3FGHIRWY/LB1

Departure

Time 2026-04-15 10:27
Airport Frankfurt Main Airport (EDDF)

Arrival

Time 2026-04-15 10:55
Airport Dortmund Airport (EDLW)
Time Latitude Longitude Altitude Speed Heading
2026-04-15 09:52 50.04393 8.56166 356 ft 0 kts 155°
2026-04-15 10:15 50.04399 8.56161 364 ft 2 kts 156°
2026-04-15 10:15 50.04418 8.56150 359 ft 3 kts 166°
2026-04-15 10:16 50.04438 8.56145 358 ft 3 kts 183°
2026-04-15 10:16 50.04456 8.56151 356 ft 3 kts 219°
2026-04-15 10:16 50.04464 8.56164 364 ft 1 kts 249°
2026-04-15 10:16 50.04464 8.56165 364 ft 0 kts 250°
2026-04-15 10:20 50.04459 8.56146 360 ft 4 kts 250°
2026-04-15 10:21 50.04447 8.56095 362 ft 6 kts 249°
2026-04-15 10:21 50.04412 8.56038 356 ft 9 kts 202°
2026-04-15 10:21 50.04345 8.56053 362 ft 11 kts 163°
2026-04-15 10:21 50.04291 8.56144 359 ft 13 kts 107°
2026-04-15 10:22 50.04234 8.56251 357 ft 14 kts 155°
2026-04-15 10:22 50.04148 8.56277 353 ft 6 kts 191°
2026-04-15 10:22 50.04112 8.56221 359 ft 9 kts 245°
2026-04-15 10:22 50.04089 8.56120 355 ft 11 kts 250°
2026-04-15 10:23 50.04060 8.55998 354 ft 13 kts 250°
2026-04-15 10:23 50.04028 8.55863 356 ft 13 kts 250°
2026-04-15 10:23 50.03997 8.55732 349 ft 14 kts 249°
2026-04-15 10:23 50.03960 8.55581 355 ft 16 kts 251°
2026-04-15 10:24 50.03922 8.55417 357 ft 17 kts 250°
2026-04-15 10:24 50.03879 8.55239 358 ft 18 kts 249°
2026-04-15 10:24 50.03834 8.55055 357 ft 19 kts 250°
2026-04-15 10:24 50.03789 8.54865 352 ft 17 kts 249°
2026-04-15 10:25 50.03745 8.54681 354 ft 19 kts 249°
2026-04-15 10:25 50.03695 8.54472 343 ft 22 kts 250°
2026-04-15 10:25 50.03654 8.54328 347 ft 7 kts 226°
2026-04-15 10:25 50.03599 8.54314 347 ft 9 kts 167°
2026-04-15 10:26 50.03534 8.54353 351 ft 10 kts 157°
2026-04-15 10:26 50.03500 8.54434 346 ft 10 kts 94°
2026-04-15 10:26 50.03528 8.54576 349 ft 33 kts 69°
2026-04-15 10:26 50.03710 8.55340 352 ft 113 kts 70°
2026-04-15 10:27 50.04046 8.56757 460 ft 159 kts 70°
2026-04-15 10:27 50.04413 8.58362 1264 ft 157 kts 71°
2026-04-15 10:27 50.04799 8.59985 1970 ft 166 kts 70°
2026-04-15 10:27 50.05226 8.61768 2345 ft 186 kts 70°
2026-04-15 10:28 50.06030 8.63463 2698 ft 208 kts 34°
2026-04-15 10:28 50.07475 8.64072 3113 ft 230 kts
2026-04-15 10:28 50.09051 8.63949 4119 ft 223 kts 357°
2026-04-15 10:28 50.10568 8.63684 5192 ft 216 kts 353°
2026-04-15 10:29 50.12080 8.63335 5758 ft 237 kts 354°
2026-04-15 10:29 50.13845 8.63099 5762 ft 266 kts 357°
2026-04-15 10:29 50.15721 8.62949 5758 ft 273 kts 358°
2026-04-15 10:29 50.17620 8.62835 5760 ft 275 kts 359°
2026-04-15 10:30 50.19568 8.62729 6407 ft 280 kts 358°
2026-04-15 10:30 50.21510 8.62618 7330 ft 280 kts 358°
2026-04-15 10:30 50.23477 8.62498 8145 ft 284 kts 357°
2026-04-15 10:30 50.25466 8.62373 8936 ft 288 kts 357°
2026-04-15 10:31 50.27484 8.62240 9746 ft 291 kts 357°
2026-04-15 10:31 50.29519 8.62102 10497 ft 296 kts 357°
2026-04-15 10:31 50.31648 8.61955 10772 ft 318 kts 356°
2026-04-15 10:31 50.33934 8.61823 10981 ft 339 kts 358°
2026-04-15 10:32 50.36326 8.61786 11510 ft 347 kts 359°
2026-04-15 10:32 50.38758 8.61804 12179 ft 351 kts 359°
2026-04-15 10:32 50.41208 8.61834 12872 ft 354 kts 359°
2026-04-15 10:32 50.43688 8.61859 13573 ft 357 kts 359°
2026-04-15 10:33 50.46179 8.62107 14235 ft 361 kts
2026-04-15 10:33 50.48660 8.62470 14858 ft 364 kts
2026-04-15 10:33 50.51189 8.62830 15485 ft 367 kts
2026-04-15 10:33 50.53742 8.63189 16108 ft 370 kts
2026-04-15 10:34 50.56310 8.63542 16723 ft 372 kts
2026-04-15 10:34 50.58903 8.63901 17333 ft 375 kts
2026-04-15 10:34 50.61512 8.64272 17931 ft 378 kts
2026-04-15 10:34 50.64143 8.64649 18517 ft 381 kts
2026-04-15 10:35 50.66792 8.65024 19028 ft 384 kts
2026-04-15 10:35 50.69461 8.65403 19525 ft 387 kts
2026-04-15 10:35 50.72149 8.65784 20015 ft 389 kts
2026-04-15 10:35 50.74857 8.66166 20499 ft 392 kts
2026-04-15 10:36 50.77586 8.66283 20959 ft 394 kts 354°
2026-04-15 10:36 50.80278 8.65500 21428 ft 395 kts 342°
2026-04-15 10:36 50.82816 8.63821 21886 ft 396 kts 330°
2026-04-15 10:36 50.85085 8.61339 22194 ft 398 kts 318°
2026-04-15 10:37 50.86988 8.58183 22253 ft 395 kts 310°
2026-04-15 10:37 50.88755 8.54869 22182 ft 391 kts 310°
2026-04-15 10:37 50.90488 8.51617 21913 ft 381 kts 310°
2026-04-15 10:37 50.92176 8.48453 21595 ft 373 kts 310°
2026-04-15 10:38 50.93843 8.45328 21155 ft 367 kts 310°
2026-04-15 10:38 50.95457 8.42305 20721 ft 361 kts 310°
2026-04-15 10:38 50.97065 8.39290 20268 ft 356 kts 309°
2026-04-15 10:38 50.98655 8.36298 19820 ft 351 kts 309°
2026-04-15 10:39 51.00223 8.33346 19359 ft 348 kts 310°
2026-04-15 10:39 51.01936 8.30694 18894 ft 345 kts 321°
2026-04-15 10:39 51.03943 8.28596 18419 ft 343 kts 330°
2026-04-15 10:39 51.06026 8.26765 17908 ft 340 kts 329°
2026-04-15 10:40 51.08074 8.24950 17447 ft 335 kts 329°
2026-04-15 10:40 51.10096 8.23149 17008 ft 331 kts 329°
2026-04-15 10:40 51.12089 8.21369 16577 ft 327 kts 329°
2026-04-15 10:40 51.14067 8.19607 16112 ft 323 kts 329°
2026-04-15 10:41 51.16021 8.17865 15680 ft 320 kts 329°
2026-04-15 10:41 51.17958 8.16135 15252 ft 318 kts 329°
2026-04-15 10:41 51.19882 8.14417 14817 ft 316 kts 329°
2026-04-15 10:41 51.21795 8.12705 14389 ft 314 kts 329°
2026-04-15 10:42 51.23693 8.11002 13961 ft 312 kts 328°
2026-04-15 10:42 51.25582 8.09306 13498 ft 311 kts 328°
2026-04-15 10:42 51.27467 8.07608 13072 ft 310 kts 328°
2026-04-15 10:42 51.29342 8.05919 12650 ft 309 kts 328°
2026-04-15 10:43 51.31208 8.04242 12230 ft 307 kts 328°
2026-04-15 10:43 51.33058 8.02582 11820 ft 304 kts 328°
2026-04-15 10:43 51.34879 8.00948 11408 ft 302 kts 329°
2026-04-15 10:43 51.36710 7.99301 11001 ft 301 kts 328°
2026-04-15 10:44 51.38527 7.97667 10641 ft 298 kts 329°
2026-04-15 10:44 51.40313 7.96058 10356 ft 291 kts 329°
2026-04-15 10:44 51.42063 7.94477 10146 ft 288 kts 329°
2026-04-15 10:44 51.43806 7.92902 10025 ft 288 kts 329°
2026-04-15 10:45 51.45551 7.91332 9886 ft 287 kts 328°
2026-04-15 10:45 51.47165 7.89457 9531 ft 287 kts 314°
2026-04-15 10:45 51.48379 7.86931 9022 ft 287 kts 297°
2026-04-15 10:45 51.49106 7.83974 8577 ft 285 kts 283°
2026-04-15 10:46 51.49596 7.80933 8079 ft 280 kts 283°
2026-04-15 10:46 51.50088 7.77922 7519 ft 276 kts 283°
2026-04-15 10:46 51.50577 7.74954 6999 ft 273 kts 283°
2026-04-15 10:46 51.51056 7.72062 6721 ft 258 kts 283°
2026-04-15 10:47 51.51500 7.69389 6437 ft 241 kts 282°
2026-04-15 10:47 51.52132 7.66931 5866 ft 240 kts 305°
2026-04-15 10:47 51.53372 7.65151 5523 ft 241 kts 331°
2026-04-15 10:47 51.54975 7.64416 5166 ft 243 kts 359°
2026-04-15 10:48 51.56619 7.64906 4855 ft 240 kts 26°
2026-04-15 10:48 51.57946 7.66487 4384 ft 242 kts 52°
2026-04-15 10:48 51.58690 7.68899 3961 ft 241 kts 81°
2026-04-15 10:48 51.58698 7.71525 3795 ft 231 kts 105°
2026-04-15 10:49 51.58074 7.73853 3699 ft 226 kts 126°
2026-04-15 10:49 51.56920 7.75498 3637 ft 224 kts 156°
2026-04-15 10:49 51.55530 7.76644 3570 ft 226 kts 142°
2026-04-15 10:49 51.54629 7.78682 3505 ft 228 kts 109°
2026-04-15 10:50 51.54606 7.81121 3425 ft 215 kts 75°
2026-04-15 10:50 51.55377 7.83052 3352 ft 203 kts 43°
2026-04-15 10:50 51.56587 7.84004 3293 ft 191 kts 12°
2026-04-15 10:50 51.57873 7.83859 3174 ft 185 kts 336°
2026-04-15 10:51 51.58690 7.82418 3065 ft 179 kts 286°
2026-04-15 10:51 51.58590 7.80508 2943 ft 173 kts 241°
2026-04-15 10:51 51.57985 7.78872 2742 ft 163 kts 240°
2026-04-15 10:51 51.57471 7.77352 2545 ft 149 kts 239°
2026-04-15 10:52 51.56979 7.75922 2353 ft 143 kts 239°
2026-04-15 10:52 51.56501 7.74546 2157 ft 139 kts 238°
2026-04-15 10:52 51.56028 7.73191 1970 ft 139 kts 239°
2026-04-15 10:52 51.55554 7.71837 1797 ft 138 kts 238°
2026-04-15 10:53 51.55247 7.70957 1675 ft 136 kts 238°
2026-04-15 10:53 51.54804 7.69633 1470 ft 134 kts 239°
2026-04-15 10:53 51.54350 7.68313 1260 ft 135 kts 238°
2026-04-15 10:53 51.53880 7.67007 1062 ft 135 kts 238°
2026-04-15 10:54 51.53423 7.65707 898 ft 132 kts 235°
2026-04-15 10:54 51.52971 7.64430 697 ft 130 kts 235°
2026-04-15 10:54 51.52526 7.63178 536 ft 127 kts 236°
2026-04-15 10:54 51.52094 7.61954 414 ft 121 kts 237°
2026-04-15 10:55 51.51752 7.60996 416 ft 68 kts 241°
2026-04-15 10:55 51.51636 7.60661 409 ft 18 kts 237°
2026-04-15 10:55 51.51552 7.60630 414 ft 9 kts 152°
2026-04-15 10:55 51.51529 7.60706 412 ft 7 kts 91°
2026-04-15 10:56 51.51542 7.60804 411 ft 13 kts 75°
2026-04-15 10:56 51.51561 7.60909 418 ft 8 kts 73°
2026-04-15 10:56 51.51571 7.60964 422 ft 4 kts 73°
2026-04-15 10:56 51.51579 7.61016 427 ft 4 kts 76°
2026-04-15 10:57 51.51601 7.61101 420 ft 11 kts 63°